Weather History for Cambridge Bay, NU

Change the Weather History Date:

Wednesday, March 6, 2013

  Actual Average Record
Temperature  
Mean Temperature -22 °F -  
Max Temperature -19 °F -15 °F 1 °F (2008)
Min Temperature -26 °F -26 °F -45 °F (2003)
Degree Days  
Heating Degree Days 88    
Moisture  
Dew Point -32 °F    
Average Humidity 62    
Maximum Humidity 69    
Minimum Humidity 45    
Precipitation  
Precipitation 0.01 in - - ()
Sea Level Pressure  
Sea Level Pressure 30.19 in    
Wind  
Wind Speed 9 mph ()    
Max Wind Speed 17 mph    
Max Gust Speed -    
Visibility 9.0 miles    
Events Snow    
Averages and records for this station are not official NWS values.
T = Trace of Precipitation, MM = Missing Value Source: Averaged Metar Reports

Daily Weather History Graph

Daily Weather History Graph

Search for Another Location

Airport:

Trip Planner

Search our weather history database for the weather conditions in past years. The results will help you decide how hot, cold, wet, or windy it might be!

Date:

Astronomy

Mar. 06, 2013 Rise Set
Actual Time 7:00 AM MST 5:25 PM MST
Civil Twilight 6:01 AM MST 6:23 PM MST
Nautical Twilight 4:53 AM MST 7:32 PM MST
Astronomical Twilight 3:39 AM MST 8:47 PM MST
Moon 6:06 AM MST (3/6) 9:17 AM MST (3/6)
Length of Visible Light 12h 21m
Length of Day
10h 25m
Waning Crescent, 29% of the Moon is Illuminated
Mar 6
Waning Crescent
Mar 11
New
Mar 19
First Quarter
Mar 27
Full
Apr 2
Last Quarter

Hourly Weather History & Observations

Time (MST) Temp. Windchill Dew Point Humidity Pressure Visibility Wind Dir Wind Speed Gust Speed Precip Events Conditions
12:00 AM -20.2 °F -38.8 °F -29.2 °F 63% 30.24 in 5.0 mi North 8.1 mph - N/A Snow Light Snow
1:00 AM -20.2 °F -42.4 °F -29.2 °F 63% 30.23 in 10.0 mi North 11.5 mph - N/A Snow Light Snow
1:23 AM - - - N/A% - 5.0 mi NNE 9.2 mph - N/A   Ice Crystals
2:00 AM -22.0 °F -37.7 °F -31.0 °F 63% 30.22 in 6.0 mi North 5.8 mph - N/A   Ice Crystals
3:00 AM -23.8 °F -37.7 °F -32.8 °F 63% 30.23 in 5.0 mi North 4.6 mph - N/A   Ice Crystals
4:00 AM -25.6 °F -45.4 °F -32.8 °F 69% 30.22 in 5.0 mi North 8.1 mph - N/A   Ice Crystals
5:00 AM -24 °F - -33 °F 46% 30.21 in 5 mi North 9.2 mph - - Snow Snow
6:00 AM -27.4 °F -47.6 °F -34.6 °F 69% 30.20 in 10.0 mi NNW 8.1 mph - N/A   Mostly Cloudy
7:00 AM -23.8 °F -39.8 °F -32.8 °F 63% 30.20 in 12.0 mi North 5.8 mph - N/A   Mostly Cloudy
7:35 AM - - - N/A% - 12.0 mi WNW 5.8 mph - N/A   Unknown
8:00 AM -25.6 °F -37.1 °F -34.6 °F 63% 30.19 in 12.0 mi North 3.5 mph - N/A Snow Light Snow
9:00 AM -23.8 °F -35.0 °F -32.8 °F 63% 30.19 in 12.0 mi NNW 3.5 mph - N/A Snow Light Snow
9:32 AM - - - N/A% - 12.0 mi NNW 4.6 mph - N/A   Mostly Cloudy
10:00 AM -25.6 °F -46.8 °F -32.8 °F 69% 30.18 in 12.0 mi North 9.2 mph - N/A   Mostly Cloudy
11:00 AM -22 °F - -30 °F 48% 30.17 in 12 mi North 16.1 mph - - Snow Snow
11:00 AM -22.0 °F -48.4 °F -31.0 °F 63% 30.17 in 12.0 mi North 16.1 mph - N/A Snow Low Drifting Snow
12:00 PM -20.2 °F -45.2 °F -29.2 °F 63% 30.17 in 12.0 mi NNE 15.0 mph - N/A Snow Low Drifting Snow
1:00 PM -20.2 °F -46.8 °F -29.2 °F 63% 30.16 in 12.0 mi North 17.3 mph - N/A Snow Low Drifting Snow
2:00 PM -20.2 °F -46.0 °F -29.2 °F 63% 30.17 in 12.0 mi North 16.1 mph - N/A Snow Low Drifting Snow
3:00 PM -20.2 °F -44.4 °F -29.2 °F 63% 30.18 in 12.0 mi North 13.8 mph - N/A Snow Low Drifting Snow
4:00 PM -20.2 °F -45.2 °F -29.2 °F 63% 30.18 in 10.0 mi NNE 15.0 mph - N/A Snow Low Drifting Snow
5:00 PM -22 °F - -31 °F 45% 30.18 in 15 mi NNE 11.5 mph - - Snow Snow
5:00 PM -22.0 °F -43.6 °F -31.0 °F 63% 30.18 in 15.0 mi North 10.4 mph - N/A   Mostly Cloudy
6:00 PM -23.8 °F -45.8 °F -31.0 °F 69% 30.18 in 8.0 mi North 10.4 mph - N/A   Mostly Cloudy
7:00 PM -23.8 °F -50.7 °F -31.0 °F 69% 30.19 in 3.0 mi North 16.1 mph - N/A Snow Ice Crystals
8:00 PM -23.8 °F -45.8 °F -32.8 °F 63% 30.19 in 5.0 mi North 10.4 mph - N/A   Ice Crystals
9:00 PM -25.6 °F -53.0 °F -34.6 °F 63% 30.18 in 4.0 mi North 16.1 mph - N/A Snow Ice Crystals
10:00 PM -25.6 °F -53.0 °F -32.8 °F 69% 30.19 in 4.0 mi North 16.1 mph - N/A Snow Ice Crystals
11:00 PM -25 °F - -33 °F 48% 30.19 in 5 mi North 15.0 mph - - Snow Snow
11:00 PM -25.6 °F -52.1 °F -32.8 °F 69% 30.19 in 5.0 mi North 15.0 mph - N/A Snow Ice Crystals